ALOS-4 (DAICHI-4)

Last updated on Tue Jul 14 2026 00:02:52 GMT+0000 (Coordinated Universal Time)

1 60182U 24123A 26194.60297052 .00000365 00000+0 55792-4 0 9997 2 60182 97.9222 291.3997 0001564 98.9597 261.1792 14.79467541109784
UTC large
Height (km)
Speed (km/s)
/
Latitude / Longitude
Inclination (degrees)
Orbital Period (minutes)
Azimuth
Elevation
Range (km)
Doppler Factor

Next 0 passes for location: London (51.5072 / 0.1276)

No passes found over London.
ALOS-4 (DAICHI-4)